VE3DVC Weather Reports


Display with metric or nautical units.
time (UTC)temp
F
wind
direction
speed
MPH
gust
MPH
rain 1hr
in
rain 24hr
in
rain mn
in
humidity
%
barometer
mb
20260506201621 54 319 1.0 4.0 0.00 0.03 0.02 57 1010.3
20260506200421 54 326 2.0 5.0 0.00 0.03 0.02 57 1010.2
20260506195220 53 309 1.0 4.0 0.00 0.03 0.02 59 1010.2
20260506194020 54 316 2.0 5.0 0.00 0.03 0.02 60 1010.2
20260506192820 54 325 1.0 4.0 0.00 0.02 0.01 59 1010.3
20260506191621 54 307 2.0 8.0 0.00 0.02 0.01 60 1010.2
20260506190421 54 321 2.0 6.0 0.00 0.02 0.01 61 1010.3
20260506185221 54 297 2.0 7.0 0.00 0.02 0.01 63 1010.2
20260506184021 54 291 1.0 6.0 0.00 0.03 0.01 64 1010.0
20260506182820 55 298 2.0 7.0 0.00 0.03 0.01 61 1010.0
20260506181621 56 306 2.0 7.0 0.00 0.03 0.01 62 1009.6
20260506180423 57 192 1.0 6.0 0.00 0.03 0.01 63 1009.4
20260506175221 56 309 1.0 4.0 0.00 0.03 0.01 69 1009.3
20260506174021 56 272 2.0 5.0 0.00 0.03 0.01 69 1009.3
20260506172820 56 276 2.0 6.0 0.00 0.03 0.01 71 1009.3
20260506171621 55 234 1.0 7.0 0.00 0.03 0.01 72 1009.3
20260506170420 55 309 1.0 5.0 0.00 0.03 0.01 73 1009.2
20260506165220 55 239 2.0 7.0 0.00 0.03 0.01 74 1009.4
20260506164021 55 228 1.0 9.0 0.00 0.03 0.01 78 1009.4
20260506162821 54 0 0.0 5.0 0.00 0.03 0.01 82 1009.4
20260506161620 54 252 2.0 5.0 0.00 0.03 0.01 76 1009.3
20260506160420 54 0 0.0 4.0 0.00 0.03 0.01 80 1009.1
20260506155220 53 0 0.0 4.0 0.00 0.03 0.01 87 1009.1
20260506154021 52 0 0.0 2.0 0.00 0.03 0.01 90 1009.2
20260506152820 51 0 0.0 4.0 0.00 0.03 0.01 91 1009.0
20260506151621 51 0 0.0 3.0 0.00 0.03 0.01 92 1009.3
20260506150420 50 0 0.0 1.0 0.00 0.03 0.01 91 1009.2
20260506145221 49 0 0.0 1.0 0.00 0.03 0.01 91 1009.0
20260506144021 49 0 0.0 2.0 0.00 0.03 0.01 91 1008.9
20260506142820 49 0 0.0 0.0 0.00 0.03 0.01 91 1009.0
20260506141620 48 0 0.0 0.0 0.00 0.03 0.01 91 1008.6
20260506140228 48 0 0.0 0.0 0.00 0.03 0.01 91 1008.6
20260506135027 48 0 0.0 0.0 0.00 0.03 0.01 91 1008.7
20260506133827 47 0 0.0 1.0 0.00 0.03 0.01 91 1008.8
20260506131536 47 0 0.0 0.0 0.00 0.03 0.01 91 1008.7
20260506130336 47 0 0.0 0.0 0.00 0.03 0.01 91 1008.7
20260506123936 47 0 0.0 0.0 0.00 0.03 0.01 91 1008.4
20260506122736 47 0 0.0 0.0 0.00 0.03 0.00 91 1008.0
20260506121536 47 0 0.0 0.0 0.00 0.03 0.00 91 1008.1
20260506120336 47 0 0.0 0.0 0.00 0.03 0.00 91 1007.9
20260506115136 47 0 0.0 0.0 0.00 0.03 0.00 91 1008.0
20260506112940 47 0 0.0 0.0 0.00 0.03 0.00 91 1008.0
20260506111740 47 0 0.0 0.0 0.00 0.03 0.00 91 1007.9
20260506110539 47 0 0.0 0.0 0.00 0.03 0.00 91 1007.7
20260506105339 47 0 0.0 0.0 0.00 0.03 0.00 91 1007.5
20260506104140 47 0 0.0 0.0 0.00 0.03 0.00 91 1007.0
20260506102940 48 0 0.0 0.0 0.00 0.03 0.00 91 1007.0
20260506101739 48 0 0.0 0.0 0.00 0.03 0.00 91 1007.2
20260506100540 48 0 0.0 0.0 0.00 0.04 0.00 91 1007.7
20260506095339 48 0 0.0 0.0 0.00 0.04 0.00 91 1007.5
20260506094140 48 0 0.0 0.0 0.00 0.04 0.00 91 1007.6
20260506092939 48 0 0.0 0.0 0.00 0.04 0.00 91 1007.3
20260506091739 48 0 0.0 0.0 0.00 0.05 0.00 91 1007.2
20260506090540 48 0 0.0 0.0 0.00 0.05 0.00 91 1007.9
20260506085339 48 0 0.0 0.0 0.00 0.05 0.00 91 1008.0
20260506084139 48 0 0.0 0.0 0.00 0.06 0.00 91 1007.7
20260506082939 48 0 0.0 0.0 0.00 0.06 0.00 91 1007.8
20260506080540 48 0 0.0 0.0 0.00 0.07 0.00 91 1007.8
20260506072939 48 0 0.0 0.0 0.00 0.08 0.00 91 1007.4
20260506071739 48 0 0.0 0.0 0.00 0.08 0.00 91 1007.4
20260506070540 48 0 0.0 0.0 0.00 0.09 0.00 91 1007.7
20260506061740 48 0 0.0 0.0 0.00 0.11 0.00 91 1007.6
20260506060539 48 0 0.0 0.0 0.00 0.11 0.00 91 1007.7
20260506050539 48 0 0.0 0.0 0.00 0.12 0.00 91 1008.2
20260506044140 49 0 0.0 0.0 0.00 0.14 0.00 91 1008.3
20260506042939 49 0 0.0 0.0 0.00 0.14 0.00 91 1008.5
20260506041739 49 0 0.0 0.0 0.00 0.14 0.00 91 1008.5
20260506040539 49 0 0.0 0.0 0.00 0.15 0.00 91 1008.6
20260506035339 49 0 0.0 0.0 0.00 0.15 0.00 91 1008.6
20260506034140 49 0 0.0 0.0 0.00 0.16 0.00 91 1008.6
20260506031739 49 0 0.0 0.0 0.00 0.16 0.15 92 1008.2
20260506024040 49 0 0.0 0.0 0.00 0.18 0.15 92 1008.3
20260506022840 49 0 0.0 0.0 0.00 0.18 0.15 92 1008.7
20260506021640 49 0 0.0 0.0 0.00 0.18 0.15 92 1008.6
20260506020441 49 0 0.0 0.0 0.00 0.18 0.15 92 1008.4
20260506015240 49 0 0.0 0.0 0.00 0.18 0.15 91 1008.5
20260506014040 49 0 0.0 0.0 0.00 0.18 0.15 91 1008.6
20260506012841 49 0 0.0 0.0 0.00 0.18 0.15 91 1008.2
20260506011641 49 0 0.0 0.0 0.00 0.18 0.14 92 1008.0
20260506010440 50 0 0.0 0.0 0.00 0.18 0.14 92 1007.9
20260506005240 50 0 0.0 0.0 0.00 0.18 0.14 92 1007.9
20260506003427 50 0 0.0 0.0 0.00 0.18 0.14 92 1008.4
20260506002229 50 0 0.0 0.0 0.00 0.18 0.14 92 1008.4
20260506001028 50 0 0.0 0.0 0.00 0.18 0.14 92 1008.3
20260505235827 50 0 0.0 0.0 0.00 0.18 0.14 92 1007.8
20260505234628 50 0 0.0 0.0 0.00 0.18 0.14 92 1007.8
20260505233428 50 0 0.0 0.0 0.00 0.18 0.14 92 1007.7
20260505232227 50 0 0.0 0.0 0.00 0.18 0.14 92 1007.7
20260505231027 50 0 0.0 0.0 0.00 0.18 0.14 92 1007.6
20260505225241 50 0 0.0 0.0 0.00 0.18 0.14 92 1007.4
20260505224041 50 0 0.0 0.0 0.00 0.18 0.14 92 1007.5
20260505222840 50 0 0.0 0.0 0.00 0.18 0.14 92 1007.4
20260505221640 50 0 0.0 0.0 0.00 0.18 0.14 92 1007.7
20260505220440 50 0 0.0 0.0 0.00 0.18 0.14 92 1007.7
20260505215240 50 0 0.0 0.0 0.00 0.18 0.14 91 1007.6
20260505214041 50 0 0.0 0.0 0.00 0.18 0.14 91 1007.6
20260505212841 50 0 0.0 0.0 0.00 0.18 0.14 91 1007.5
20260505211641 50 0 0.0 0.0 0.00 0.18 0.14 90 1007.6
20260505210440 50 0 0.0 1.0 0.00 0.18 0.14 90 1007.6
20260505204657 51 0 0.0 1.0 0.00 0.18 0.14 88 1007.6
20260505203456 52 0 0.0 4.0 0.00 0.18 0.14 86 1007.6